| time (UTC) | temp F | wind direction | speed MPH | gust MPH | rain 1hr in | rain 24hr in | rain mn in | humidity % | barometer mb |
| 20260831042007 | 60 | 254 | 1.0 | 6.0 | 0.00 | 0.00 | 0.00 | 74 | 1003.9 |
| 20260831041501 | 60 | 329 | 1.0 | 6.0 | 0.00 | 0.00 | 0.00 | 75 | 1003.9 |
| 20260831040954 | 61 | 240 | 1.0 | 5.0 | 0.00 | 0.00 | 0.00 | 76 | 1003.8 |
| 20260831040448 | 62 | 271 | 1.0 | 5.0 | 0.00 | 0.00 | 0.00 | 77 | 1003.9 |
| 20260831035948 | 62 | 277 | 1.0 | 5.0 | 0.00 | 0.00 | 0.00 | 76 | 1003.9 |
| 20260831035848 | 62 | 0 | 1.0 | 5.0 | 0.00 | 0.00 | 0.00 | 74 | 1004.1 |
| 20260831034949 | 62 | 335 | 1.0 | 5.0 | 0.00 | 0.00 | 0.00 | 70 | 1004.2 |
| 20260831034449 | 63 | 336 | 1.0 | 8.0 | 0.00 | 0.00 | 0.00 | 69 | 1004.0 |
| 20260831033950 | 63 | 303 | 2.0 | 10.0 | 0.00 | 0.00 | 0.00 | 66 | 1003.8 |
| 20260831033445 | 64 | 345 | 1.0 | 10.0 | 0.00 | 0.00 | 0.00 | 65 | 1003.7 |
| 20260831033343 | 64 | 7 | 2.0 | 15.0 | 0.00 | 0.00 | 0.00 | 64 | 1003.9 |
| 20260831032445 | 64 | 347 | 3.0 | 15.0 | 0.00 | 0.00 | 0.00 | 65 | 1003.9 |
| 20260831031945 | 64 | 9 | 3.0 | 9.0 | 0.00 | 0.00 | 0.00 | 63 | 1003.7 |
| 20260831031449 | 64 | 339 | 2.0 | 9.0 | 0.00 | 0.00 | 0.00 | 65 | 1003.8 |
| 20260831031002 | 65 | 263 | 2.0 | 11.0 | 0.00 | 0.00 | 0.00 | 64 | 1003.9 |
| 20260831030446 | 65 | 352 | 2.0 | 11.0 | 0.00 | 0.00 | 0.00 | 64 | 1003.9 |
| 20260831025947 | 65 | 318 | 2.0 | 9.0 | 0.00 | 0.00 | 0.00 | 65 | 1003.8 |
| 20260831025446 | 66 | 169 | 2.0 | 9.0 | 0.00 | 0.00 | 0.00 | 61 | 1003.5 |
| 20260831024945 | 66 | 279 | 2.0 | 7.0 | 0.00 | 0.00 | 0.00 | 65 | 1003.6 |
| 20260831024445 | 66 | 19 | 2.0 | 7.0 | 0.00 | 0.00 | 0.00 | 62 | 1003.7 |
| 20260831023944 | 67 | 351 | 1.0 | 7.0 | 0.00 | 0.00 | 0.00 | 61 | 1003.8 |
| 20260831023438 | 66 | 322 | 1.0 | 6.0 | 0.00 | 0.00 | 0.00 | 63 | 1003.9 |
| 20260831022932 | 65 | 8 | 0.0 | 6.0 | 0.00 | 0.00 | 0.00 | 64 | 1004.0 |
| 20260831022426 | 65 | 300 | 1.0 | 6.0 | 0.00 | 0.00 | 0.00 | 66 | 1004.1 |
| 20260831022123 | 65 | 236 | 1.0 | 5.0 | 0.00 | 0.00 | 0.00 | 67 | 1004.1 |
| 20260831022016 | 64 | 261 | 1.0 | 6.0 | 0.00 | 0.00 | 0.00 | 65 | 1004.1 |
| 20260831020414 | 65 | 284 | 2.0 | 8.0 | 0.00 | 0.00 | 0.00 | 66 | 1004.2 |
| 20260831015915 | 65 | 347 | 2.0 | 8.0 | 0.00 | 0.00 | 0.00 | 66 | 1004.3 |
| 20260831015416 | 64 | 279 | 1.0 | 7.0 | 0.00 | 0.00 | 0.00 | 69 | 1004.5 |
| 20260831014913 | 64 | 304 | 1.0 | 7.0 | 0.00 | 0.00 | 0.00 | 67 | 1004.5 |
| 20260831014411 | 65 | 279 | 2.0 | 7.0 | 0.00 | 0.00 | 0.00 | 66 | 1004.6 |
| 20260831013911 | 65 | 331 | 3.0 | 11.0 | 0.00 | 0.00 | 0.00 | 66 | 1004.8 |
| 20260831013820 | 67 | 355 | 3.0 | 11.0 | 0.00 | 0.00 | 0.00 | 64 | 1004.8 |
| 20260831012910 | 67 | 35 | 2.0 | 10.0 | 0.00 | 0.00 | 0.00 | 63 | 1004.8 |
| 20260831012833 | 66 | 4 | 3.0 | 9.0 | 0.00 | 0.00 | 0.00 | 65 | 1004.5 |
| 20260831012312 | 66 | 32 | 3.0 | 11.0 | 0.00 | 0.00 | 0.00 | 62 | 1004.7 |
| 20260831011413 | 67 | 305 | 2.0 | 11.0 | 0.00 | 0.00 | 0.00 | 62 | 1004.9 |
| 20260831010905 | 66 | 153 | 0.0 | 6.0 | 0.00 | 0.00 | 0.00 | 63 | 1004.8 |
| 20260831010405 | 65 | 28 | 0.0 | 3.0 | 0.00 | 0.00 | 0.00 | 68 | 1004.9 |
| 20260831005907 | 64 | 269 | 0.0 | 3.0 | 0.00 | 0.00 | 0.00 | 66 | 1005.0 |
| 20260831005405 | 64 | 342 | 0.0 | 7.0 | 0.00 | 0.00 | 0.00 | 65 | 1005.0 |
| 20260831005301 | 64 | 321 | 1.0 | 7.0 | 0.00 | 0.00 | 0.00 | 66 | 1005.0 |
| 20260831004406 | 65 | 334 | 0.0 | 4.0 | 0.00 | 0.00 | 0.00 | 64 | 1005.1 |
| 20260831003905 | 65 | 4 | 0.0 | 4.0 | 0.00 | 0.00 | 0.00 | 65 | 1005.1 |
| 20260831003406 | 65 | 285 | 1.0 | 5.0 | 0.00 | 0.00 | 0.00 | 65 | 1005.1 |
| 20260831002906 | 64 | 305 | 1.0 | 5.0 | 0.00 | 0.00 | 0.00 | 65 | 1005.2 |
| 20260831002405 | 63 | 313 | 1.0 | 7.0 | 0.00 | 0.00 | 0.00 | 65 | 1005.4 |
| 20260831002325 | 64 | 290 | 1.0 | 7.0 | 0.00 | 0.00 | 0.00 | 63 | 1005.6 |
| 20260831001404 | 65 | 344 | 1.0 | 6.0 | 0.00 | 0.00 | 0.00 | 64 | 1005.5 |
| 20260831001302 | 65 | 285 | 2.0 | 9.0 | 0.00 | 0.00 | 0.00 | 64 | 1005.7 |
| 20260831000406 | 65 | 223 | 1.0 | 9.0 | 0.00 | 0.00 | 0.00 | 66 | 1005.8 |
| 20260830235909 | 64 | 231 | 2.0 | 8.0 | 0.00 | 0.00 | 0.00 | 69 | 1005.8 |
| 20260830235408 | 64 | 347 | 2.0 | 8.0 | 0.00 | 0.00 | 0.00 | 69 | 1005.8 |
| 20260830234905 | 62 | 61 | 2.0 | 8.0 | 0.00 | 0.00 | 0.00 | 72 | 1005.9 |
| 20260830234404 | 62 | 298 | 2.0 | 11.0 | 0.00 | 0.00 | 0.00 | 73 | 1005.9 |
| 20260830233902 | 62 | 23 | 3.0 | 11.0 | 0.00 | 0.00 | 0.00 | 72 | 1005.9 |
| 20260830233404 | 63 | 334 | 2.0 | 7.0 | 0.00 | 0.00 | 0.00 | 68 | 1006.0 |
| 20260830232858 | 63 | 351 | 2.0 | 7.0 | 0.00 | 0.00 | 0.00 | 68 | 1005.9 |
| 20260830232559 | 63 | 338 | 2.0 | 12.0 | 0.00 | 0.00 | 0.00 | 66 | 1005.8 |
| 20260830231342 | 63 | 339 | 2.0 | 12.0 | 0.00 | 0.00 | 0.00 | 64 | 1005.6 |
| 20260830231108 | 62 | 330 | 2.0 | 10.0 | 0.00 | 0.00 | 0.00 | 65 | 1005.9 |
| 20260830230942 | 63 | 288 | 2.0 | 12.0 | 0.00 | 0.00 | 0.00 | 65 | 1005.7 |
| 20260830225315 | 64 | 278 | 1.0 | 13.0 | 0.00 | 0.00 | 0.00 | 61 | 1005.9 |
| 20260830224811 | 64 | 319 | 1.0 | 13.0 | 0.00 | 0.00 | 0.00 | 63 | 1005.9 |
| 20260830224304 | 65 | 315 | 1.0 | 8.0 | 0.00 | 0.00 | 0.00 | 62 | 1005.8 |
| 20260830224202 | 65 | 23 | 2.0 | 8.0 | 0.00 | 0.00 | 0.00 | 62 | 1005.9 |
| 20260830223251 | 64 | 343 | 2.0 | 8.0 | 0.00 | 0.00 | 0.00 | 62 | 1005.8 |
| 20260830223153 | 64 | 300 | 1.0 | 8.0 | 0.00 | 0.00 | 0.00 | 61 | 1005.9 |
| 20260830222241 | 65 | 336 | 1.0 | 8.0 | 0.00 | 0.00 | 0.00 | 62 | 1006.0 |
| 20260830221733 | 64 | 263 | 1.0 | 4.0 | 0.00 | 0.00 | 0.00 | 61 | 1006.2 |
| 20260830221228 | 64 | 270 | 2.0 | 10.0 | 0.00 | 0.00 | 0.00 | 63 | 1006.4 |
| 20260830220721 | 64 | 341 | 1.0 | 10.0 | 0.00 | 0.00 | 0.00 | 63 | 1006.5 |
| 20260830220215 | 63 | 293 | 1.0 | 7.0 | 0.00 | 0.00 | 0.00 | 65 | 1006.5 |
| 20260830215711 | 62 | 327 | 1.0 | 7.0 | 0.00 | 0.00 | 0.00 | 63 | 1006.6 |
| 20260830215215 | 62 | 303 | 1.0 | 5.0 | 0.00 | 0.00 | 0.00 | 67 | 1006.5 |
| 20260830214657 | 62 | 328 | 0.0 | 5.0 | 0.00 | 0.00 | 0.00 | 65 | 1006.7 |
| 20260830214551 | 62 | 236 | 1.0 | 7.0 | 0.00 | 0.00 | 0.00 | 64 | 1006.7 |
| 20260830213646 | 62 | 312 | 1.0 | 7.0 | 0.00 | 0.00 | 0.00 | 66 | 1006.4 |
| 20260830213141 | 63 | 331 | 1.0 | 7.0 | 0.00 | 0.00 | 0.00 | 65 | 1006.5 |
| 20260830212638 | 62 | 331 | 1.0 | 7.0 | 0.00 | 0.00 | 0.00 | 65 | 1006.4 |
| 20260830212128 | 62 | 262 | 1.0 | 4.0 | 0.00 | 0.01 | 0.00 | 64 | 1006.4 |
| 20260830211622 | 62 | 307 | 1.0 | 6.0 | 0.00 | 0.01 | 0.00 | 65 | 1006.4 |
| 20260830211116 | 62 | 313 | 1.0 | 6.0 | 0.00 | 0.01 | 0.00 | 64 | 1006.5 |
| 20260830210612 | 62 | 202 | 0.0 | 2.0 | 0.00 | 0.01 | 0.00 | 68 | 1006.6 |
| 20260830210103 | 61 | 329 | 0.0 | 6.0 | 0.00 | 0.01 | 0.00 | 68 | 1006.6 |
| 20260830205558 | 60 | 319 | 0.0 | 6.0 | 0.00 | 0.01 | 0.00 | 69 | 1006.5 |
| 20260830205051 | 59 | 274 | 1.0 | 4.0 | 0.00 | 0.01 | 0.00 | 69 | 1006.6 |
| 20260830204545 | 58 | 270 | 0.0 | 4.0 | 0.00 | 0.01 | 0.00 | 72 | 1006.5 |
| 20260830204041 | 57 | 288 | 1.0 | 4.0 | 0.00 | 0.01 | 0.00 | 74 | 1006.5 |
| 20260830203534 | 56 | 322 | 1.0 | 7.0 | 0.00 | 0.01 | 0.00 | 74 | 1006.5 |
| 20260830203035 | 56 | 5 | 1.0 | 7.0 | 0.00 | 0.01 | 0.00 | 75 | 1006.6 |
| 20260830202935 | 56 | 267 | 1.0 | 5.0 | 0.00 | 0.01 | 0.00 | 75 | 1006.7 |
| 20260830202212 | 56 | 331 | 0.0 | 8.0 | 0.00 | 0.01 | 0.00 | 76 | 1006.6 |
| 20260830201031 | 56 | 293 | 0.0 | 3.0 | 0.00 | 0.01 | 0.00 | 76 | 1006.5 |
| 20260830200943 | 56 | 284 | 0.0 | 3.0 | 0.00 | 0.01 | 0.00 | 76 | 1006.4 |
| 20260830200412 | 56 | 291 | 0.0 | 5.0 | 0.00 | 0.01 | 0.00 | 75 | 1006.7 |
| 20260830195529 | 55 | 200 | 1.0 | 9.0 | 0.00 | 0.01 | 0.00 | 76 | 1006.5 |
| 20260830195425 | 56 | 10 | 1.0 | 9.0 | 0.00 | 0.01 | 0.00 | 74 | 1006.4 |
| 20260830194527 | 55 | 132 | 1.0 | 11.0 | 0.00 | 0.01 | 0.00 | 75 | 1006.5 |
| 20260830194435 | 55 | 326 | 1.0 | 11.0 | 0.00 | 0.01 | 0.00 | 73 | 1006.3 |
| 20260830193527 | 56 | 293 | 1.0 | 8.0 | 0.00 | 0.01 | 0.00 | 73 | 1006.2 |
| 20260830193025 | 56 | 304 | 1.0 | 7.0 | 0.00 | 0.01 | 0.00 | 73 | 1006.3 |
| 20260830192527 | 55 | 325 | 0.0 | 7.0 | 0.00 | 0.01 | 0.00 | 74 | 1006.1 |
| 20260830192500 | 55 | 9 | 1.0 | 11.0 | 0.00 | 0.01 | 0.00 | 75 | 1006.1 |
| 20260830191526 | 54 | 296 | 1.0 | 11.0 | 0.00 | 0.01 | 0.00 | 74 | 1006.2 |
| 20260830191023 | 54 | 336 | 1.0 | 8.0 | 0.00 | 0.01 | 0.00 | 74 | 1006.3 |
| 20260830190523 | 54 | 110 | 2.0 | 9.0 | 0.00 | 0.01 | 0.00 | 74 | 1006.3 |
| 20260830190022 | 54 | 324 | 1.0 | 9.0 | 0.00 | 0.01 | 0.00 | 75 | 1006.3 |
| 20260830185520 | 54 | 99 | 2.0 | 9.0 | 0.00 | 0.01 | 0.00 | 75 | 1006.2 |
| 20260830185019 | 54 | 341 | 1.0 | 9.0 | 0.00 | 0.01 | 0.00 | 75 | 1006.3 |
| 20260830184519 | 54 | 288 | 1.0 | 7.0 | 0.00 | 0.01 | 0.00 | 75 | 1006.3 |
| 20260830184215 | 54 | 327 | 1.0 | 7.0 | 0.00 | 0.01 | 0.00 | 75 | 1006.3 |
| 20260830183017 | 54 | 7 | 1.0 | 6.0 | 0.00 | 0.01 | 0.00 | 74 | 1006.2 |
| 20260830182523 | 55 | 40 | 1.0 | 10.0 | 0.00 | 0.01 | 0.00 | 74 | 1005.9 |
| 20260830182020 | 54 | 305 | 1.0 | 10.0 | 0.00 | 0.01 | 0.00 | 74 | 1005.8 |
| 20260830181518 | 54 | 251 | 1.0 | 9.0 | 0.00 | 0.01 | 0.00 | 74 | 1005.8 |
| 20260830181020 | 54 | 2 | 1.0 | 8.0 | 0.00 | 0.01 | 0.00 | 75 | 1005.6 |
| 20260830180523 | 54 | 298 | 1.0 | 8.0 | 0.00 | 0.01 | 0.00 | 75 | 1005.7 |
| 20260830180022 | 54 | 326 | 1.0 | 9.0 | 0.00 | 0.01 | 0.00 | 74 | 1005.6 |
| 20260830175518 | 54 | 343 | 2.0 | 9.0 | 0.00 | 0.01 | 0.00 | 73 | 1005.5 |
| 20260830175017 | 55 | 314 | 2.0 | 9.0 | 0.00 | 0.01 | 0.00 | 73 | 1005.3 |
| 20260830174530 | 55 | 357 | 2.0 | 10.0 | 0.00 | 0.01 | 0.00 | 73 | 1005.6 |
| 20260830174016 | 55 | 311 | 3.0 | 12.0 | 0.00 | 0.01 | 0.00 | 72 | 1005.4 |
| 20260830173516 | 55 | 4 | 3.0 | 12.0 | 0.00 | 0.01 | 0.00 | 72 | 1005.4 |
| 20260830173016 | 54 | 357 | 2.0 | 10.0 | 0.00 | 0.01 | 0.00 | 73 | 1005.2 |
| 20260830172516 | 54 | 33 | 1.0 | 8.0 | 0.00 | 0.01 | 0.00 | 74 | 1005.0 |
| 20260830172207 | 55 | 213 | 1.0 | 8.0 | 0.00 | 0.01 | 0.00 | 74 | 1004.9 |
| 20260830171007 | 55 | 50 | 1.0 | 6.0 | 0.00 | 0.01 | 0.00 | 74 | 1004.7 |
| 20260830170508 | 55 | 338 | 1.0 | 6.0 | 0.00 | 0.01 | 0.00 | 73 | 1004.6 |
| 20260830170421 | 55 | 281 | 1.0 | 6.0 | 0.00 | 0.01 | 0.00 | 73 | 1004.7 |
| 20260830165919 | 55 | 339 | 2.0 | 7.0 | 0.00 | 0.01 | 0.00 | 73 | 1004.8 |
| 20260830165006 | 55 | 42 | 2.0 | 10.0 | 0.00 | 0.01 | 0.00 | 73 | 1004.7 |
| 20260830164505 | 55 | 244 | 1.0 | 10.0 | 0.00 | 0.01 | 0.00 | 74 | 1004.9 |
| 20260830164003 | 55 | 267 | 0.0 | 7.0 | 0.00 | 0.01 | 0.00 | 77 | 1005.1 |
| 20260830163505 | 55 | 315 | 0.0 | 3.0 | 0.00 | 0.01 | 0.00 | 77 | 1004.9 |
| 20260830163004 | 55 | 263 | 1.0 | 7.0 | 0.00 | 0.01 | 0.00 | 75 | 1004.9 |
| 20260830162504 | 55 | 348 | 1.0 | 10.0 | 0.00 | 0.01 | 0.00 | 77 | 1004.8 |
| 20260830162005 | 55 | 256 | 1.0 | 10.0 | 0.00 | 0.01 | 0.00 | 76 | 1004.6 |
| 20260830161925 | 55 | 338 | 1.0 | 7.0 | 0.00 | 0.01 | 0.00 | 76 | 1004.7 |
| 20260830161019 | 56 | 10 | 1.0 | 9.0 | 0.00 | 0.01 | 0.00 | 76 | 1004.5 |
| 20260830160504 | 56 | 246 | 1.0 | 9.0 | 0.00 | 0.01 | 0.00 | 76 | 1004.5 |
| 20260830160000 | 55 | 262 | 0.0 | 3.0 | 0.00 | 0.01 | 0.00 | 76 | 1004.6 |
| 20260830155452 | 55 | 328 | 0.0 | 4.0 | 0.00 | 0.01 | 0.00 | 76 | 1004.4 |
| 20260830154947 | 55 | 19 | 1.0 | 7.0 | 0.00 | 0.01 | 0.00 | 77 | 1004.5 |
| 20260830154441 | 55 | 338 | 0.0 | 7.0 | 0.00 | 0.01 | 0.00 | 77 | 1004.5 |
| 20260830154321 | 55 | 9 | 0.0 | 2.0 | 0.00 | 0.01 | 0.00 | 76 | 1004.6 |
| 20260830153821 | 56 | 290 | 0.0 | 3.0 | 0.00 | 0.01 | 0.00 | 75 | 1004.6 |
| 20260830152921 | 56 | 330 | 0.0 | 3.0 | 0.00 | 0.01 | 0.00 | 75 | 1004.8 |
| 20260830152420 | 56 | 271 | 0.0 | 4.0 | 0.00 | 0.01 | 0.00 | 76 | 1004.9 |
| 20260830151928 | 56 | 267 | 0.0 | 4.0 | 0.00 | 0.01 | 0.00 | 76 | 1004.7 |
| 20260830151422 | 56 | 290 | 0.0 | 5.0 | 0.00 | 0.01 | 0.00 | 76 | 1004.8 |
| 20260830151329 | 56 | 262 | 1.0 | 5.0 | 0.00 | 0.01 | 0.00 | 75 | 1005.0 |
| 20260830150407 | 56 | 298 | 1.0 | 6.0 | 0.00 | 0.01 | 0.00 | 76 | 1005.0 |
| 20260830145909 | 56 | 310 | 1.0 | 6.0 | 0.00 | 0.01 | 0.00 | 76 | 1005.1 |
| 20260830145405 | 56 | 318 | 0.0 | 5.0 | 0.00 | 0.01 | 0.00 | 76 | 1005.0 |
| 20260830145306 | 56 | 289 | 1.0 | 5.0 | 0.00 | 0.01 | 0.00 | 75 | 1005.0 |
| 20260830144405 | 56 | 250 | 1.0 | 6.0 | 0.00 | 0.01 | 0.00 | 76 | 1005.0 |
| 20260830143905 | 56 | 283 | 1.0 | 6.0 | 0.00 | 0.01 | 0.00 | 76 | 1005.0 |
| 20260830143839 | 56 | 1 | 1.0 | 9.0 | 0.00 | 0.01 | 0.00 | 76 | 1004.9 |
| 20260830142903 | 56 | 278 | 1.0 | 9.0 | 0.00 | 0.01 | 0.00 | 77 | 1004.9 |
| 20260830142409 | 56 | 260 | 1.0 | 7.0 | 0.00 | 0.01 | 0.00 | 77 | 1004.8 |
| 20260830141914 | 56 | 317 | 0.0 | 5.0 | 0.00 | 0.01 | 0.00 | 77 | 1004.8 |
| 20260830141414 | 56 | 314 | 0.0 | 5.0 | 0.00 | 0.01 | 0.00 | 77 | 1004.9 |
| 20260830140915 | 56 | 298 | 0.0 | 5.0 | 0.00 | 0.01 | 0.00 | 77 | 1004.7 |
| 20260830140413 | 56 | 312 | 1.0 | 5.0 | 0.00 | 0.01 | 0.00 | 77 | 1004.6 |
| 20260830140313 | 56 | 265 | 1.0 | 5.0 | 0.00 | 0.01 | 0.00 | 77 | 1004.6 |
| 20260830135411 | 56 | 343 | 1.0 | 5.0 | 0.00 | 0.01 | 0.00 | 77 | 1004.5 |
| 20260830134905 | 56 | 317 | 1.0 | 6.0 | 0.00 | 0.01 | 0.00 | 77 | 1004.5 |
| 20260830134359 | 56 | 334 | 1.0 | 6.0 | 0.00 | 0.01 | 0.00 | 77 | 1004.5 |
| 20260830134302 | 56 | 312 | 1.0 | 8.0 | 0.00 | 0.01 | 0.00 | 77 | 1004.3 |
| 20260830133334 | 56 | 315 | 1.0 | 10.0 | 0.00 | 0.01 | 0.00 | 77 | 1004.2 |
| 20260830133232 | 56 | 334 | 2.0 | 10.0 | 0.00 | 0.01 | 0.00 | 77 | 1004.2 |
| 20260830132337 | 56 | 244 | 2.0 | 15.0 | 0.00 | 0.01 | 0.00 | 77 | 1004.1 |
| 20260830131839 | 56 | 337 | 2.0 | 15.0 | 0.00 | 0.01 | 0.00 | 77 | 1004.0 |
| 20260830131323 | 56 | 334 | 2.0 | 10.0 | 0.00 | 0.01 | 0.00 | 77 | 1004.1 |
| 20260830130821 | 56 | 318 | 2.0 | 13.0 | 0.00 | 0.01 | 0.00 | 78 | 1003.9 |
| 20260830130321 | 55 | 285 | 1.0 | 13.0 | 0.00 | 0.01 | 0.00 | 79 | 1004.2 |
| 20260830125834 | 55 | 265 | 1.0 | 7.0 | 0.00 | 0.01 | 0.00 | 80 | 1003.9 |
| 20260830125333 | 55 | 310 | 1.0 | 7.0 | 0.00 | 0.01 | 0.00 | 79 | 1004.0 |
| 20260830124835 | 55 | 247 | 1.0 | 4.0 | 0.00 | 0.01 | 0.00 | 79 | 1003.8 |
| 20260830124321 | 55 | 317 | 1.0 | 8.0 | 0.00 | 0.01 | 0.00 | 79 | 1003.7 |
| 20260830123819 | 55 | 2 | 1.0 | 8.0 | 0.00 | 0.01 | 0.00 | 79 | 1003.8 |
| 20260830123751 | 55 | 286 | 1.0 | 8.0 | 0.00 | 0.01 | 0.00 | 80 | 1003.9 |
| 20260830122823 | 55 | 326 | 0.0 | 2.0 | 0.00 | 0.01 | 0.00 | 80 | 1003.7 |
| 20260830122332 | 55 | 358 | 0.0 | 2.0 | 0.00 | 0.01 | 0.00 | 80 | 1003.8 |
| 20260830121833 | 55 | 303 | 0.0 | 4.0 | 0.00 | 0.01 | 0.00 | 79 | 1003.8 |
| 20260830121314 | 56 | 0 | 1.0 | 6.0 | 0.00 | 0.01 | 0.00 | 79 | 1003.7 |
| 20260830121231 | 56 | 239 | 1.0 | 6.0 | 0.00 | 0.01 | 0.00 | 79 | 1003.6 |
| 20260830120331 | 56 | 305 | 1.0 | 7.0 | 0.00 | 0.02 | 0.00 | 79 | 1003.4 |
| 20260830115812 | 56 | 359 | 1.0 | 7.0 | 0.00 | 0.02 | 0.02 | 78 | 1003.2 |
| 20260830115322 | 56 | 334 | 1.0 | 5.0 | 0.00 | 0.02 | 0.02 | 78 | 1003.2 |
| 20260830114809 | 56 | 209 | 1.0 | 8.0 | 0.00 | 0.02 | 0.02 | 77 | 1003.0 |
| 20260830114311 | 56 | 289 | 2.0 | 11.0 | 0.00 | 0.03 | 0.02 | 77 | 1002.9 |
| 20260830114213 | 56 | 304 | 2.0 | 12.0 | 0.00 | 0.04 | 0.02 | 76 | 1003.0 |
| 20260830113304 | 56 | 289 | 2.0 | 12.0 | 0.00 | 0.04 | 0.02 | 76 | 1002.9 |
| 20260830113219 | 56 | 259 | 2.0 | 10.0 | 0.00 | 0.04 | 0.02 | 76 | 1002.9 |
| 20260830112306 | 56 | 241 | 1.0 | 7.0 | 0.00 | 0.04 | 0.02 | 76 | 1002.9 |
| 20260830111805 | 56 | 252 | 2.0 | 9.0 | 0.00 | 0.04 | 0.02 | 76 | 1003.0 |
| 20260830111743 | 56 | 337 | 2.0 | 9.0 | 0.00 | 0.05 | 0.02 | 75 | 1003.2 |
| 20260830110823 | 56 | 337 | 2.0 | 9.0 | 0.00 | 0.05 | 0.02 | 76 | 1003.2 |
| 20260830110319 | 56 | 297 | 2.0 | 6.0 | 0.00 | 0.06 | 0.02 | 77 | 1003.3 |
| 20260830105817 | 56 | 8 | 1.0 | 5.0 | 0.00 | 0.06 | 0.02 | 77 | 1003.5 |
| 20260830105324 | 57 | 261 | 1.0 | 9.0 | 0.00 | 0.06 | 0.02 | 77 | 1003.5 |
| 20260830104816 | 57 | 1 | 2.0 | 9.0 | 0.00 | 0.06 | 0.02 | 77 | 1003.3 |
| 20260830104318 | 57 | 331 | 2.0 | 10.0 | 0.00 | 0.06 | 0.02 | 77 | 1003.4 |
| 20260830103813 | 57 | 24 | 2.0 | 10.0 | 0.00 | 0.08 | 0.02 | 77 | 1003.5 |
| 20260830103306 | 57 | 35 | 1.0 | 8.0 | 0.00 | 0.08 | 0.02 | 76 | 1003.5 |
| 20260830102748 | 57 | 111 | 2.0 | 10.0 | 0.00 | 0.10 | 0.02 | 76 | 1003.4 |
| 20260830102241 | 57 | 331 | 2.0 | 10.0 | 0.00 | 0.13 | 0.02 | 76 | 1003.4 |
| 20260830101735 | 57 | 242 | 1.0 | 8.0 | 0.00 | 0.15 | 0.02 | 76 | 1003.3 |
| 20260830101231 | 57 | 308 | 2.0 | 8.0 | 0.00 | 0.17 | 0.02 | 76 | 1003.1 |
| 20260830100723 | 57 | 197 | 2.0 | 10.0 | 0.00 | 0.17 | 0.02 | 76 | 1003.1 |
| 20260830100217 | 57 | 281 | 3.0 | 12.0 | 0.00 | 0.18 | 0.02 | 76 | 1003.1 |
| 20260830095711 | 57 | 17 | 3.0 | 12.0 | 0.00 | 0.20 | 0.02 | 76 | 1002.9 |
| 20260830095204 | 57 | 284 | 3.0 | 17.0 | 0.00 | 0.20 | 0.02 | 76 | 1003.0 |
| 20260830094704 | 57 | 4 | 3.0 | 17.0 | 0.00 | 0.21 | 0.02 | 75 | 1003.2 |
| 20260830094206 | 58 | 321 | 3.0 | 19.0 | 0.00 | 0.24 | 0.02 | 75 | 1003.1 |
| 20260830094107 | 58 | 134 | 3.0 | 19.0 | 0.00 | 0.27 | 0.02 | 75 | 1003.1 |
| 20260830093347 | 58 | 305 | 2.0 | 9.0 | 0.00 | 0.30 | 0.02 | 75 | 1003.1 |
| 20260830092205 | 58 | 2 | 3.0 | 14.0 | 0.00 | 0.34 | 0.02 | 75 | 1003.1 |
| 20260830091708 | 58 | 20 | 3.0 | 14.0 | 0.00 | 0.34 | 0.02 | 76 | 1003.2 |
| 20260830091206 | 57 | 270 | 2.0 | 12.0 | 0.00 | 0.35 | 0.02 | 77 | 1003.4 |
| 20260830090711 | 57 | 301 | 2.0 | 14.0 | 0.00 | 0.36 | 0.02 | 77 | 1003.1 |
| 20260830090209 | 58 | 283 | 3.0 | 14.0 | 0.00 | 0.38 | 0.02 | 77 | 1003.1 |
| 20260830085708 | 57 | 39 | 3.0 | 10.0 | 0.00 | 0.39 | 0.02 | 77 | 1003.0 |
| 20260830085207 | 57 | 317 | 2.0 | 10.0 | 0.00 | 0.41 | 0.02 | 78 | 1002.9 |
| 20260830084707 | 57 | 33 | 1.0 | 6.0 | 0.00 | 0.42 | 0.02 | 79 | 1002.7 |
| 20260830084209 | 57 | 312 | 1.0 | 10.0 | 0.00 | 0.42 | 0.02 | 79 | 1002.8 |
| 20260830084050 | 57 | 300 | 1.0 | 10.0 | 0.00 | 0.43 | 0.02 | 79 | 1002.7 |
| 20260830083204 | 57 | 317 | 1.0 | 11.0 | 0.00 | 0.43 | 0.02 | 79 | 1002.6 |
| 20260830082701 | 57 | 347 | 1.0 | 11.0 | 0.00 | 0.45 | 0.02 | 79 | 1002.7 |
| 20260830082205 | 57 | 278 | 1.0 | 12.0 | 0.00 | 0.46 | 0.02 | 79 | 1002.7 |
| 20260830081709 | 57 | 246 | 2.0 | 12.0 | 0.00 | 0.47 | 0.02 | 79 | 1002.6 |
| 20260830081201 | 56 | 243 | 1.0 | 11.0 | 0.00 | 0.48 | 0.02 | 79 | 1002.6 |
| 20260830080700 | 56 | 277 | 1.0 | 5.0 | 0.00 | 0.50 | 0.02 | 79 | 1002.7 |
| 20260830080205 | 56 | 244 | 1.0 | 5.0 | 0.00 | 0.50 | 0.02 | 79 | 1002.8 |
| 20260830075704 | 56 | 262 | 0.0 | 3.0 | 0.00 | 0.52 | 0.02 | 80 | 1002.7 |
| 20260830075609 | 57 | 264 | 1.0 | 8.0 | 0.00 | 0.53 | 0.02 | 79 | 1002.8 |
| 20260830074702 | 57 | 334 | 1.0 | 8.0 | 0.00 | 0.54 | 0.02 | 79 | 1002.7 |
| 20260830074201 | 57 | 307 | 1.0 | 12.0 | 0.00 | 0.56 | 0.02 | 78 | 1002.7 |
| 20260830073700 | 57 | 211 | 2.0 | 12.0 | 0.00 | 0.57 | 0.02 | 77 | 1002.7 |
| 20260830073201 | 57 | 326 | 1.0 | 12.0 | 0.00 | 0.58 | 0.02 | 77 | 1002.7 |
| 20260830072701 | 57 | 347 | 1.0 | 10.0 | 0.00 | 0.59 | 0.02 | 77 | 1002.7 |
| 20260830072200 | 57 | 341 | 0.0 | 9.0 | 0.00 | 0.61 | 0.02 | 78 | 1002.8 |
| 20260830071700 | 57 | 355 | 0.0 | 9.0 | 0.00 | 0.61 | 0.02 | 78 | 1002.8 |
| 20260830071158 | 57 | 185 | 0.0 | 2.0 | 0.00 | 0.63 | 0.02 | 77 | 1002.9 |
| 20260830070700 | 58 | 185 | 1.0 | 5.0 | 0.00 | 0.64 | 0.02 | 75 | 1002.9 |
| 20260830070206 | 58 | 173 | 2.0 | 6.0 | 0.00 | 0.65 | 0.02 | 75 | 1002.8 |
| 20260830065647 | 58 | 278 | 2.0 | 8.0 | 0.00 | 0.66 | 0.02 | 74 | 1002.7 |
| 20260830065139 | 58 | 7 | 2.0 | 6.0 | 0.00 | 0.67 | 0.02 | 74 | 1002.6 |
| 20260830065031 | 58 | 303 | 1.0 | 6.0 | 0.00 | 0.68 | 0.02 | 74 | 1002.6 |
| 20260830064127 | 58 | 264 | 1.0 | 5.0 | 0.00 | 0.69 | 0.02 | 75 | 1002.7 |
| 20260830064012 | 58 | 245 | 1.0 | 5.0 | 0.00 | 0.69 | 0.02 | 74 | 1002.6 |
| 20260830063534 | 59 | 264 | 2.0 | 13.0 | 0.00 | 0.70 | 0.02 | 73 | 1002.5 |
| 20260830062611 | 58 | 284 | 2.0 | 11.0 | 0.00 | 0.72 | 0.02 | 74 | 1002.8 |
| 20260830062101 | 58 | 4 | 1.0 | 8.0 | 0.00 | 0.73 | 0.02 | 74 | 1002.1 |
| 20260830061554 | 58 | 260 | 1.0 | 8.0 | 0.00 | 0.74 | 0.02 | 74 | 1002.0 |
| 20260830061048 | 58 | 350 | 1.0 | 8.0 | 0.00 | 0.76 | 0.02 | 74 | 1002.1 |
| 20260830060547 | 58 | 296 | 1.0 | 5.0 | 0.00 | 0.76 | 0.02 | 75 | 1002.0 |
| 20260830060032 | 58 | 284 | 0.0 | 5.0 | 0.00 | 0.76 | 0.02 | 76 | 1001.9 |
| 20260830055527 | 58 | 124 | 0.0 | 2.0 | 0.00 | 0.77 | 0.02 | 76 | 1001.7 |
| 20260830055021 | 59 | 11 | 0.0 | 3.0 | 0.00 | 0.77 | 0.02 | 74 | 1001.8 |
| 20260830054514 | 59 | 339 | 1.0 | 5.0 | 0.00 | 0.78 | 0.02 | 73 | 1001.8 |
| 20260830054008 | 60 | 336 | 1.0 | 6.0 | 0.00 | 0.78 | 0.02 | 73 | 1001.8 |
| 20260830053503 | 60 | 355 | 1.0 | 7.0 | 0.00 | 0.78 | 0.02 | 73 | 1001.7 |
| 20260830052956 | 59 | 327 | 1.0 | 7.0 | 0.00 | 0.79 | 0.02 | 73 | 1001.7 |
| 20260830052451 | 59 | 5 | 0.0 | 5.0 | 0.00 | 0.79 | 0.02 | 73 | 1001.6 |
| 20260830051944 | 60 | 289 | 1.0 | 6.0 | 0.00 | 0.79 | 0.02 | 73 | 1001.7 |
| 20260830051438 | 60 | 319 | 1.0 | 6.0 | 0.00 | 0.80 | 0.02 | 72 | 1001.7 |
| 20260830050933 | 60 | 294 | 1.0 | 6.0 | 0.00 | 0.80 | 0.02 | 72 | 1001.7 |
| 20260830050427 | 60 | 280 | 1.0 | 11.0 | 0.00 | 0.81 | 0.02 | 72 | 1001.6 |
| 20260830045921 | 61 | 289 | 1.0 | 11.0 | 0.00 | 0.82 | 0.02 | 70 | 1001.6 |
| 20260830045414 | 61 | 262 | 1.0 | 8.0 | 0.00 | 0.82 | 0.02 | 70 | 1001.5 |
| 20260830045313 | 62 | 269 | 0.0 | 3.0 | 0.00 | 0.83 | 0.02 | 70 | 1001.6 |
| 20260830044403 | 62 | 278 | 0.0 | 5.0 | 0.00 | 0.83 | 0.02 | 70 | 1001.4 |
| 20260830043856 | 62 | 274 | 1.0 | 7.0 | 0.00 | 0.83 | 0.02 | 69 | 1001.3 |
| 20260830043803 | 63 | 329 | 1.0 | 7.0 | 0.00 | 0.84 | 0.02 | 69 | 1001.3 |
| 20260830043244 | 63 | 357 | 1.0 | 8.0 | 0.00 | 0.85 | 0.02 | 68 | 1001.2 |
| 20260830042339 | 64 | 176 | 2.0 | 9.0 | 0.00 | 0.85 | 0.02 | 67 | 1001.2 |